This demonstration page uses our WeatherBlox Daily Observations layout. Learn more.

Left ArrowRight Arrow

Hourly Observations for May 6, 2017

Temp ( °F °C ) Dew Point ( °F °C ) Humidity (%) Winds ( mph kmh ) Pressure ( in mb ) Visibility ( mi km ) Precip ( " mm )
12:54 am 00:54 Clear 56 13.3 42 5.6 60 60 Calm 29.87 1012 10 16.0934 0 0
1:54 am 01:54 Clear 60 15.6 42 5.6 52 52 WSW 6 9 29.86 1011 10 16.0934 0 0
2:54 am 02:54 Clear 59 15 42 5.6 54 54 VRB 3 6 29.85 1011 10 16.0934 0 0
3:54 am 03:54 Clear 58 14.4 43 6.1 58 58 VRB 3 6 29.85 1011 10 16.0934 0 0
4:54 am 04:54 Clear 60 15.6 44 6.7 56 56 W 6 9 29.85 1011 10 16.0934 0 0
5:54 am 05:54 Clear 57 13.9 44 6.7 62 62 NNW 10 17 29.89 1012 10 16.0934 0 0
6:54 am 06:54 Sunny 56 13.3 44 6.7 65 65 SW 6 9 29.89 1012 10 16.0934 0 0
7:54 am 07:54 Sunny 61 16.1 45 7.2 56 56 N 3 6 29.91 1013 10 16.0934 0 0
8:54 am 08:54 Sunny 65 18.3 45 7.2 49 49 NNE 10 17 29.93 1014 10 16.0934 0 0
9:54 am 09:54 Sunny 70 21.1 45 7.2 41 41 ENE 12 19 29.93 1014 10 16.0934 0 0
10:54 am 10:54 Sunny 71 21.7 44 6.7 38 38 E 7 11 29.93 1014 10 16.0934 0 0
11:54 am 11:54 Sunny 75 23.9 40 4.4 28 28 ENE 12 19 29.93 1014 10 16.0934 0 0
12:54 pm 12:54 Sunny 77 25 39 3.9 26 26 ENE 13 20 29.92 1013 10 16.0934 0 0
1:54 pm 13:54 Sunny 79 26.1 40 4.4 25 25 VRB 3 6 29.91 1013 10 16.0934 0 0
2:54 pm 14:54 Sunny 80 26.7 40 4.4 24 24 NE 7 11 29.89 1012 10 16.0934 0 0
3:54 pm 15:54 Sunny 81 27.2 40 4.4 23 23 VRB 5 7 29.87 1012 10 16.0934 0 0
4:54 pm 16:54 Sunny 81 27.2 41 5 24 24 NE 7 11 29.85 1011 10 16.0934 0 0
5:54 pm 17:54 Sunny 81 27.2 41 5 24 24 NNE 5 7 29.85 1011 10 16.0934 0 0
6:54 pm 18:54 Sunny 79 26.1 43 6.1 28 28 NE 3 6 29.85 1011 10 16.0934 0 0
7:54 pm 19:54 Sunny 74 23.3 40 4.4 29 29 ESE 6 9 29.85 1011 10 16.0934 0 0
8:54 pm 20:54 Clear 71 21.7 39 3.9 31 31 E 7 11 29.86 1011 10 16.0934 0 0
9:54 pm 21:54 Clear 68 20 39 3.9 35 35 ESE 8 13 29.88 1012 10 16.0934 0 0
10:54 pm 22:54 Clear 65 18.3 39 3.9 39 39 ESE 6 9 29.89 1012 10 16.0934 0 0
11:54 pm 23:54 Clear 63 17.2 39 3.9 41 41 SE 8 13 29.9 1013 10 16.0934 0 0

Powered by AerisWeather